Location: Newark
(16.3678°N, 77.8722°E)
Time: 16:47:21
(UTC+00:00)

Tiros 1 - Pass Details

Date: 18 December 2019
Orbit: 630 x 664 km, 48.4° (Epoch: 19 January)

Event Time Altitude Azimuth Distance (km) Brightness Sun altitude
Rises 04:22:31 0° 344° (NNW) 2,920 10.1 37.2°
Reaches altitude 10° 04:26:04 10° 11° (NNE) 2,006 9.5 37.8°
Maximum altitude 04:28:15 13° 40° (NE) 1,797 9.5 38.1°
Drops below altitude 10° 04:30:27 10° 69° (ENE) 2,000 10.0 38.4°
Sets 04:33:57 0° 96° (E) 2,904 11.0 39.0°
